Time,TemperatureF,DewpointF,PressureIn,WindDirection,WindDirectionDegrees,WindSpeedMPH,WindSpeedGustMPH,Humidity,HourlyPrecipIn,Conditions,Clouds,dailyrainin,SoftwareType,DateUTC
2013-02-08 00:11:00,23.0,-6.0,30.48,East,95,0.0,-999.0,28,-99.99,,,0.00,weatherlink.com 1.10,2013-02-08 05:11:00,
2013-02-08 00:26:00,23.0,-6.0,30.48,East,95,0.0,-999.0,28,-99.99,,,0.00,weatherlink.com 1.10,2013-02-08 05:26:00,
2013-02-08 00:40:00,22.9,-6.0,30.47,East,96,0.0,-999.0,28,-99.99,,,0.00,weatherlink.com 1.10,2013-02-08 05:40:00,
2013-02-08 00:56:00,22.9,-5.0,30.46,East,96,0.0,-999.0,29,-99.99,,,0.00,weatherlink.com 1.10,2013-02-08 05:56:00,
2013-02-08 01:11:00,22.5,-6.0,30.45,East,96,0.0,-999.0,28,-99.99,,,0.00,weatherlink.com 1.10,2013-02-08 06:11:00,
2013-02-08 01:26:00,22.1,-5.0,30.45,East,96,0.0,-999.0,30,-99.99,,,0.00,weatherlink.com 1.10,2013-02-08 06:26:00,
2013-02-08 01:41:00,21.9,-6.0,30.45,East,96,0.0,-999.0,29,-99.99,,,0.00,weatherlink.com 1.10,2013-02-08 06:41:00,
2013-02-08 01:55:00,21.8,-4.0,30.44,East,96,0.0,-999.0,32,-99.99,,,0.00,weatherlink.com 1.10,2013-02-08 06:55:00,
2013-02-08 02:11:00,21.6,-2.0,30.44,East,96,0.0,-999.0,35,-99.99,,,0.00,weatherlink.com 1.10,2013-02-08 07:11:00,
2013-02-08 02:26:00,21.8,-2.0,30.43,East,100,2.0,-999.0,35,-99.99,,,0.00,weatherlink.com 1.10,2013-02-08 07:26:00,
2013-02-08 02:41:00,21.8,-1.0,30.42,ESE,104,2.0,-999.0,37,-99.99,,,0.00,weatherlink.com 1.10,2013-02-08 07:41:00,
2013-02-08 02:55:00,21.9,1.0,30.41,ESE,103,0.0,-999.0,40,-99.99,,,0.00,weatherlink.com 1.10,2013-02-08 07:55:00,
2013-02-08 03:11:00,21.9,2.0,30.40,ESE,103,0.0,-999.0,43,-99.99,,,0.00,weatherlink.com 1.10,2013-02-08 08:11:00,
2013-02-08 03:26:00,22.1,3.0,30.40,ESE,103,0.0,-999.0,44,-99.99,,,0.00,weatherlink.com 1.10,2013-02-08 08:26:00,
2013-02-08 03:41:00,22.2,5.0,30.39,ESE,103,1.0,-999.0,47,-99.99,,,0.00,weatherlink.com 1.10,2013-02-08 08:41:00,
2013-02-08 03:56:00,22.1,6.0,30.38,East,95,0.0,-999.0,50,-99.99,,,0.00,weatherlink.com 1.10,2013-02-08 08:56:00,
2013-02-08 04:11:00,22.1,7.0,30.38,East,90,4.0,-999.0,52,-99.99,,,0.00,weatherlink.com 1.10,2013-02-08 09:11:00,
2013-02-08 04:26:00,21.9,7.0,30.38,ENE,71,0.0,-999.0,54,-99.99,,,0.00,weatherlink.com 1.10,2013-02-08 09:26:00,
2013-02-08 04:41:00,21.8,9.0,30.37,ENE,76,0.0,-999.0,57,-99.99,,,0.00,weatherlink.com 1.10,2013-02-08 09:41:00,
2013-02-08 04:56:00,21.6,9.0,30.38,East,92,0.0,-999.0,59,-99.99,,,0.00,weatherlink.com 1.10,2013-02-08 09:56:00,
2013-02-08 05:11:00,21.4,9.0,30.37,East,95,1.0,-999.0,60,-99.99,,,0.00,weatherlink.com 1.10,2013-02-08 10:11:00,
2013-02-08 05:26:00,21.3,10.0,30.36,East,95,0.0,-999.0,63,-99.99,,,0.00,weatherlink.com 1.10,2013-02-08 10:26:00,
2013-02-08 05:41:00,21.1,11.0,30.36,East,95,1.0,-999.0,65,-99.99,,,0.00,weatherlink.com 1.10,2013-02-08 10:41:00,
2013-02-08 05:55:00,20.8,11.0,30.36,East,95,0.0,-999.0,67,-99.99,,,0.00,weatherlink.com 1.10,2013-02-08 10:55:00,
2013-02-08 06:11:00,20.8,12.0,30.35,East,92,4.0,-999.0,70,-99.99,,,0.00,weatherlink.com 1.10,2013-02-08 11:11:00,
2013-02-08 06:26:00,20.5,13.0,30.36,East,89,0.0,-999.0,72,-99.99,,,0.00,weatherlink.com 1.10,2013-02-08 11:26:00,
2013-02-08 06:41:00,20.5,13.0,30.35,East,90,1.0,-999.0,74,-99.99,,,0.00,weatherlink.com 1.10,2013-02-08 11:41:00,
2013-02-08 06:56:00,19.9,13.0,30.35,East,85,1.0,-999.0,75,-99.99,,,0.00,weatherlink.com 1.10,2013-02-08 11:56:00,
2013-02-08 07:11:00,19.4,14.0,30.35,East,88,0.0,-999.0,78,-99.99,,,0.01,weatherlink.com 1.10,2013-02-08 12:11:00,
2013-02-08 07:26:00,19.2,13.0,30.35,East,79,1.0,-999.0,78,-99.99,,,0.01,weatherlink.com 1.10,2013-02-08 12:26:00,
2013-02-08 07:41:00,19.1,14.0,30.35,East,95,0.0,-999.0,79,-99.99,,,0.01,weatherlink.com 1.10,2013-02-08 12:41:00,
2013-02-08 07:56:00,18.9,13.0,30.34,ENE,64,0.0,-999.0,79,-99.99,,,0.01,weatherlink.com 1.10,2013-02-08 12:56:00,
2013-02-08 08:11:00,18.9,13.0,30.35,ENE,71,1.0,-999.0,79,-99.99,,,0.01,weatherlink.com 1.10,2013-02-08 13:11:00,
2013-02-08 08:26:00,18.9,13.0,30.34,NE,52,0.0,-999.0,79,-99.99,,,0.01,weatherlink.com 1.10,2013-02-08 13:26:00,
2013-02-08 08:41:00,19.1,14.0,30.33,East,79,0.0,-999.0,79,-99.99,,,0.01,weatherlink.com 1.10,2013-02-08 13:41:00,
2013-02-08 08:56:00,19.1,14.0,30.33,ENE,69,0.0,-999.0,79,-99.99,,,0.01,weatherlink.com 1.10,2013-02-08 13:56:00,
2013-02-08 09:11:00,19.2,14.0,30.31,NE,52,1.0,-999.0,79,-99.99,,,0.01,weatherlink.com 1.10,2013-02-08 14:11:00,
2013-02-08 09:26:00,19.2,14.0,30.31,East,99,0.0,-999.0,79,-99.99,,,0.01,weatherlink.com 1.10,2013-02-08 14:26:00,
2013-02-08 09:41:00,19.2,13.0,30.30,SSE,151,2.0,-999.0,78,-99.99,,,0.01,weatherlink.com 1.10,2013-02-08 14:41:00,
2013-02-08 09:57:00,19.2,13.0,30.30,ENE,71,1.0,-999.0,78,-99.99,,,0.01,weatherlink.com 1.10,2013-02-08 14:57:00,
2013-02-08 10:11:00,19.2,13.0,30.30,NE,49,0.0,-999.0,77,-99.99,,,0.01,weatherlink.com 1.10,2013-02-08 15:11:00,
2013-02-08 10:26:00,19.2,13.0,30.30,East,85,2.0,-999.0,77,-99.99,,,0.01,weatherlink.com 1.10,2013-02-08 15:26:00,
2013-02-08 10:41:00,19.4,13.0,30.29,NE,41,0.0,-999.0,77,-99.99,,,0.01,weatherlink.com 1.10,2013-02-08 15:41:00,
2013-02-08 10:57:00,19.5,13.0,30.29,NE,48,1.0,-999.0,76,-99.99,,,0.01,weatherlink.com 1.10,2013-02-08 15:57:00,
2013-02-08 11:12:00,19.9,14.0,30.28,ENE,64,6.0,-999.0,76,-99.99,,,0.02,weatherlink.com 1.10,2013-02-08 16:12:00,
2013-02-08 11:26:00,19.7,14.0,30.26,NNE,25,2.0,-999.0,77,-99.99,,,0.02,weatherlink.com 1.10,2013-02-08 16:26:00,
2013-02-08 11:41:00,19.9,14.0,30.25,ENE,69,1.0,-999.0,78,-99.99,,,0.02,weatherlink.com 1.10,2013-02-08 16:41:00,
2013-02-08 11:56:00,19.9,14.0,30.24,ENE,68,0.0,-999.0,79,-99.99,,,0.02,weatherlink.com 1.10,2013-02-08 16:56:00,
2013-02-08 12:11:00,20.0,15.0,30.23,NE,52,2.0,-999.0,79,-99.99,,,0.02,weatherlink.com 1.10,2013-02-08 17:11:00,
2013-02-08 12:26:00,20.2,15.0,30.21,ENE,65,3.0,-999.0,79,-99.99,,,0.02,weatherlink.com 1.10,2013-02-08 17:26:00,
2013-02-08 12:41:00,20.6,15.0,30.19,North,7,1.0,-999.0,79,-99.99,,,0.02,weatherlink.com 1.10,2013-02-08 17:41:00,
2013-02-08 12:56:00,20.6,15.0,30.18,NE,42,0.0,-999.0,78,-99.99,,,0.02,weatherlink.com 1.10,2013-02-08 17:56:00,
2013-02-08 13:11:00,20.5,15.0,30.18,ENE,68,7.0,-999.0,78,-99.99,,,0.02,weatherlink.com 1.10,2013-02-08 18:11:00,
2013-02-08 13:27:00,20.5,15.0,30.17,ESE,109,1.0,-999.0,78,-99.99,,,0.02,weatherlink.com 1.10,2013-02-08 18:27:00,
2013-02-08 13:41:00,20.3,14.0,30.16,ENE,72,2.0,-999.0,78,-99.99,,,0.02,weatherlink.com 1.10,2013-02-08 18:41:00,
2013-02-08 13:57:00,20.2,15.0,30.15,NNE,24,5.0,-999.0,79,-99.99,,,0.02,weatherlink.com 1.10,2013-02-08 18:57:00,
2013-02-08 14:11:00,20.0,15.0,30.13,NE,42,2.0,-999.0,80,-99.99,,,0.03,weatherlink.com 1.10,2013-02-08 19:11:00,
2013-02-08 14:26:00,20.0,15.0,30.12,ESE,112,2.0,-999.0,81,-99.99,,,0.04,weatherlink.com 1.10,2013-02-08 19:26:00,
2013-02-08 14:41:00,19.7,15.0,30.12,NNE,31,0.0,-999.0,82,-99.99,,,0.05,weatherlink.com 1.10,2013-02-08 19:41:00,
2013-02-08 14:56:00,19.7,15.0,30.11,NE,55,1.0,-999.0,83,-99.99,,,0.05,weatherlink.com 1.10,2013-02-08 19:56:00,
2013-02-08 15:11:00,19.7,16.0,30.09,East,97,2.0,-999.0,84,-99.99,,,0.06,weatherlink.com 1.10,2013-02-08 20:11:00,
2013-02-08 15:26:00,19.5,16.0,30.09,East,79,1.0,-999.0,85,-99.99,,,0.07,weatherlink.com 1.10,2013-02-08 20:26:00,
2013-02-08 15:41:00,19.5,16.0,30.08,North,10,3.0,-999.0,85,-99.99,,,0.08,weatherlink.com 1.10,2013-02-08 20:41:00,
2013-02-08 15:56:00,19.4,16.0,30.06,NNE,24,5.0,-999.0,85,-99.99,,,0.09,weatherlink.com 1.10,2013-02-08 20:56:00,
2013-02-08 16:12:00,19.4,16.0,30.05,East,79,4.0,-999.0,85,-99.99,,,0.09,weatherlink.com 1.10,2013-02-08 21:12:00,
2013-02-08 16:27:00,19.1,15.0,30.04,North,0,7.0,-999.0,85,-99.99,,,0.10,weatherlink.com 1.10,2013-02-08 21:27:00,
2013-02-08 16:41:00,18.9,15.0,30.02,NNE,17,2.0,-999.0,85,-99.99,,,0.11,weatherlink.com 1.10,2013-02-08 21:41:00,
2013-02-08 16:57:00,18.9,15.0,30.02,NE,49,5.0,-999.0,86,-99.99,,,0.12,weatherlink.com 1.10,2013-02-08 21:57:00,
2013-02-08 17:11:00,18.9,15.0,30.00,NNE,16,1.0,-999.0,86,-99.99,,,0.12,weatherlink.com 1.10,2013-02-08 22:11:00,
2013-02-08 17:26:00,18.8,15.0,30.00,ENE,78,2.0,-999.0,86,-99.99,,,0.13,weatherlink.com 1.10,2013-02-08 22:26:00,
2013-02-08 17:41:00,18.6,15.0,29.98,NNE,21,5.0,-999.0,86,-99.99,,,0.13,weatherlink.com 1.10,2013-02-08 22:41:00,
2013-02-08 17:57:00,18.6,15.0,29.98,ENE,66,5.0,-999.0,87,-99.99,,,0.14,weatherlink.com 1.10,2013-02-08 22:57:00,
2013-02-08 18:12:00,18.6,15.0,29.98,NE,42,10.0,-999.0,87,-99.99,,,0.15,weatherlink.com 1.10,2013-02-08 23:12:00,
2013-02-08 18:26:00,18.8,16.0,29.97,North,3,7.0,-999.0,87,-99.99,,,0.15,weatherlink.com 1.10,2013-02-08 23:26:00,
2013-02-08 18:41:00,18.9,16.0,29.96,NE,56,1.0,-999.0,87,-99.99,,,0.16,weatherlink.com 1.10,2013-02-08 23:41:00,
2013-02-08 18:56:00,19.1,16.0,29.95,ENE,62,2.0,-999.0,87,-99.99,,,0.17,weatherlink.com 1.10,2013-02-08 23:56:00,
2013-02-08 19:12:00,19.1,16.0,29.94,East,80,3.0,-999.0,88,-99.99,,,0.18,weatherlink.com 1.10,2013-02-09 00:12:00,
2013-02-08 19:26:00,19.2,16.0,29.93,NE,38,2.0,-999.0,88,-99.99,,,0.18,weatherlink.com 1.10,2013-02-09 00:26:00,
2013-02-08 19:41:00,19.2,16.0,29.91,NE,45,10.0,-999.0,88,-99.99,,,0.19,weatherlink.com 1.10,2013-02-09 00:41:00,
2013-02-08 19:56:00,19.2,16.0,29.90,NE,48,7.0,-999.0,88,-99.99,,,0.20,weatherlink.com 1.10,2013-02-09 00:56:00,
2013-02-08 20:11:00,19.2,16.0,29.89,NE,54,3.0,-999.0,88,-99.99,,,0.21,weatherlink.com 1.10,2013-02-09 01:11:00,
2013-02-08 20:26:00,19.1,16.0,29.87,NE,38,5.0,-999.0,88,-99.99,,,0.21,weatherlink.com 1.10,2013-02-09 01:26:00,
2013-02-08 20:41:00,18.6,16.0,29.86,NE,38,4.0,-999.0,88,-99.99,,,0.22,weatherlink.com 1.10,2013-02-09 01:41:00,
2013-02-08 20:57:00,18.4,16.0,29.85,NNE,25,3.0,-999.0,88,-99.99,,,0.22,weatherlink.com 1.10,2013-02-09 01:57:00,
2013-02-08 21:11:00,18.0,15.0,29.84,NE,42,5.0,-999.0,87,-99.99,,,0.22,weatherlink.com 1.10,2013-02-09 02:11:00,
2013-02-08 21:26:00,17.7,15.0,29.83,NE,44,3.0,-999.0,88,-99.99,,,0.23,weatherlink.com 1.10,2013-02-09 02:26:00,
2013-02-08 21:41:00,17.3,14.0,29.82,NE,37,5.0,-999.0,88,-99.99,,,0.24,weatherlink.com 1.10,2013-02-09 02:41:00,
2013-02-08 21:56:00,17.2,14.0,29.82,ENE,73,7.0,-999.0,88,-99.99,,,0.24,weatherlink.com 1.10,2013-02-09 02:56:00,
2013-02-08 22:11:00,17.0,14.0,29.80,NE,38,4.0,-999.0,88,-99.99,,,0.25,weatherlink.com 1.10,2013-02-09 03:11:00,
2013-02-08 22:26:00,17.0,14.0,29.79,NE,38,6.0,-999.0,88,-99.99,,,0.27,weatherlink.com 1.10,2013-02-09 03:26:00,
2013-02-08 22:41:00,16.9,14.0,29.77,NNE,27,5.0,-999.0,88,-99.99,,,0.28,weatherlink.com 1.10,2013-02-09 03:41:00,
2013-02-08 22:56:00,16.7,14.0,29.75,North,354,4.0,-999.0,88,-99.99,,,0.29,weatherlink.com 1.10,2013-02-09 03:56:00,
2013-02-08 23:11:00,16.7,14.0,29.75,NNE,32,6.0,-999.0,88,-99.99,,,0.31,weatherlink.com 1.10,2013-02-09 04:11:00,
2013-02-08 23:27:00,16.5,14.0,29.74,ESE,109,3.0,-999.0,88,-99.99,,,0.32,weatherlink.com 1.10,2013-02-09 04:27:00,
2013-02-08 23:42:00,16.5,14.0,29.72,North,349,4.0,-999.0,88,-99.99,,,0.34,weatherlink.com 1.10,2013-02-09 04:42:00,
2013-02-08 23:57:00,16.5,14.0,29.71,NNE,28,7.0,-999.0,88,-99.99,,,0.34,weatherlink.com 1.10,2013-02-09 04:57:00,